Regional Weather Roundup
Issued by NWS Goodland, KS

Home | Current Version | Previous Version | Text Only | Print | Product List | Glossary Off
Versions: 1 2 3 4 5 6 7 8 9 10 11 12 13 14 15 16 17 18 19 20 21 22 23 24 25 26 27 28 29 30 31 32 33 34 35 36 37 38 39 40 41 42 43 44 45 46 47 48 49 50

425
ASUS43 KGLD 131859
RWRGLD

GOODLAND FORECAST AREA HOURLY WEATHER ROUNDUP
NATIONAL WEATHER SERVICE GOODLAND KS
1200 PM MST SAT FEB 13 2016

...OFFICIAL OBSERVATIONS...

CITY           SKY/WX    TMP DP  RH WIND       PRES   REMARKS
GOODLAND KS    FOG       27  26  96 S16       30.09F VSB 1/2 WCI  15
HILL CITY KS   CLOUDY    29  18  63 S13       30.24F WCI  19
IMPERIAL NEB   CLOUDY    27  25  92 S13       30.09F WCI  16
MCCOOK NEB     CLOUDY    24  19  81 S16       30.19F HAZE    WCI  11
AKRON CO       CLOUDY    33  32  96 W7        30.01F FOG
BURLINGTON CO  CLOUDY    30  27  88 S13       30.06F FOG     WCI  20
LIMON CO       CLOUDY    36  33  89 CALM      30.02F
$$

...UNOFFICIAL OBSERVATIONS...

CITY           SKY/WX    TMP DP  RH WIND       PRES   REMARKS
COLBY KS       CLOUDY    27  27 100 S16       30.15F FOG     WCI  14
GOVE KS          N/A     27  32 100 MISG        N/A
LENORA KS        N/A     26  32 100 MISG        N/A
NORTON KS      CLOUDY    25  16  68 SE13      30.22  WCI  13
SHARON SPRINGS   N/A     29  28  95 S10         N/A  WCI  20
KIT CARSON CO    N/A     28  26  91 MISG        N/A
YUMA CO          N/A     33  31  94 S9          N/A
$$




USA.gov is the U.S. government's official web portal to all federal, state and local government web resources and services.